User: anonymous   Login
Location: Lawrence
(38.9720°N, 95.2350°W)
Time: 00:32:01
(UTC-05:00)
Language:

JAS-1B - Orbit

View from above orbital plane
View from above orbital plane
View from above satellite
View from above satellite

Ground track
Ground track

The orbit data is extracted from the following two-line orbital elements,

1 20480U 90013C   17083.82037678 -.00000007 +00000-0 +61688-4 0  9998
2 20480 099.0385 232.8391 0539710 222.0229 133.8264 12.83415422270853
Epoch (UTC): 24 March 2017 19:41:20
Eccentricity: 0.0539710
inclination: 99.0385°
perigee height: 912 km
apogee height: 1743 km
right ascension of ascending node: 232.8391°
argument of perigee: 222.0229°
revolutions per day: 12.83415422
mean anomaly at epoch: 133.8264°
orbit number at epoch: 27085

The dashed part of the orbit path shows where the satellite is in the earth's shadow,  

DLR